Weather History for New York, NY

Change the Weather History Date:

Wednesday, July 3, 2013

  Actual Average Record
Temperature  
Mean Temperature 80 °F 76 °F  
Max Temperature 85 °F 85 °F 107 °F (1966)
Min Temperature 74 °F 68 °F 57 °F (1969)
Degree Days  
Heating Degree Days 0 0  
Month to date heating degree days 0 0  
Since 1 June heating degree days 4 16  
Since 1 July heating degree days 0 0  
Cooling Degree Days 15 11  
Month to date cooling degree days 39 33  
Year to date cooling degree days 408 330  
Since 1 June cooling degree days 320 264  
Growing Degree Days 28 (Base 50)    
Moisture  
Dew Point 71 °F    
Average Humidity 75    
Maximum Humidity 88    
Minimum Humidity 61    
Precipitation  
Precipitation 0.96 in 0.12 in 1.77 in (1967)
Month to date precipitation 1.75 0.37  
Year to date precipitation 24.32 22.00  
Snow  
Snow 0.00 in 0.00 in - ()
Month to date snowfall 0.0 0.0  
Since 1 July snowfall 0.0 0.0  
Snow Depth 0.00 in    
Sea Level Pressure  
Sea Level Pressure 30.20 in    
Wind  
Wind Speed 10 mph (SSW)    
Max Wind Speed 20 mph    
Max Gust Speed 23 mph    
Visibility 7 miles    
Events Fog , Rain , Thunderstorm    
T = Trace of Precipitation, MM = Missing Value Source: NWS Daily Summary

Daily Weather History Graph

Daily Weather History Graph

Search for Another Location

Airport:

Trip Planner

Search our weather history database for the weather conditions in past years. The results will help you decide how hot, cold, wet, or windy it might be!

Date:

Astronomy

Jul. 03, 2013 Rise Set
Actual Time 5:29 AM EDT 8:30 PM EDT
Civil Twilight 4:55 AM EDT 9:03 PM EDT
Nautical Twilight 4:13 AM EDT 9:45 PM EDT
Astronomical Twilight 3:24 AM EDT 10:34 PM EDT
Moon 2:06 AM EDT (7/3) 4:37 PM EDT (7/3)
Length of Visible Light 16h 07m
Length of Day
15h 01m
Waning Crescent, 18% of the Moon is Illuminated
Jul 3
Waning Crescent
Jul 8
New
Jul 15
First Quarter
Jul 22
Full
Jul 29
Last Quarter

Hourly Weather History & Observations

Time (EDT) Temp. Heat Index Dew Point Humidity Pressure Visibility Wind Dir Wind Speed Gust Speed Precip Events Conditions
12:51 AM 75.9 °F - 68.0 °F 76% 30.18 in 10.0 mi SSW 11.5 mph - N/A   Scattered Clouds
1:51 AM 75.9 °F - 66.9 °F 74% 30.18 in 10.0 mi SW 13.8 mph 20.7 mph N/A   Mostly Cloudy
2:51 AM 75.0 °F - 66.9 °F 76% 30.18 in 10.0 mi SW 12.7 mph - N/A   Mostly Cloudy
3:51 AM 75.0 °F - 66.9 °F 76% 30.19 in 10.0 mi SSW 10.4 mph - N/A   Mostly Cloudy
4:51 AM 73.9 °F - 66.9 °F 79% 30.20 in 10.0 mi SSW 8.1 mph - N/A   Mostly Cloudy
5:51 AM 75.0 °F - 68.0 °F 79% 30.21 in 10.0 mi SSW 6.9 mph - N/A   Mostly Cloudy
6:51 AM 75.0 °F - 69.1 °F 82% 30.23 in 10.0 mi SW 8.1 mph - N/A   Mostly Cloudy
7:51 AM 75.9 °F - 69.1 °F 79% 30.23 in 10.0 mi SSW 8.1 mph - N/A   Mostly Cloudy
8:51 AM 78.1 °F - 69.1 °F 74% 30.24 in 10.0 mi South 6.9 mph - N/A   Mostly Cloudy
9:51 AM 79.0 °F - 69.1 °F 72% 30.25 in 10.0 mi SSW 8.1 mph - N/A   Mostly Cloudy
10:51 AM 81.0 °F 83.8 °F 68.0 °F 65% 30.24 in 10.0 mi WSW 9.2 mph - 0.00 in   Mostly Cloudy
11:51 AM 82.0 °F 85.5 °F 69.1 °F 65% 30.23 in 10.0 mi SW 10.4 mph - N/A   Mostly Cloudy
12:26 PM 82.4 °F 86.3 °F 69.8 °F 66% 30.23 in 10.0 mi SSW 9.2 mph - N/A   Mostly Cloudy
12:51 PM 84.0 °F 87.8 °F 69.1 °F 61% 30.23 in 10.0 mi Variable 6.9 mph - N/A   Mostly Cloudy
1:23 PM 84.2 °F 88.4 °F 69.8 °F 62% 30.22 in 10.0 mi SSW 9.2 mph 16.1 mph N/A   Mostly Cloudy
1:51 PM 81.0 °F 84.4 °F 70.0 °F 69% 30.22 in 10.0 mi South 18.4 mph - N/A   Mostly Cloudy
2:44 PM 78.8 °F - 73.4 °F 83% 30.22 in 2.0 mi WSW 8.1 mph - 0.03 in Rain Heavy Rain
2:51 PM 79.0 °F - 73.0 °F 82% 30.21 in 1.5 mi SSW 9.2 mph - 0.07 in Rain Heavy Rain
3:02 PM 78.8 °F - 73.4 °F 83% 30.20 in 2.5 mi South 10.4 mph - 0.07 in Rain Heavy Rain
3:08 PM 78.8 °F - 73.4 °F 83% 30.20 in 1.8 mi South 12.7 mph - 0.10 in Rain Heavy Rain
3:18 PM 78.8 °F - 71.6 °F 78% 30.20 in 2.5 mi SSW 8.1 mph - 0.18 in Rain Rain
3:25 PM 78.8 °F - 71.6 °F 78% 30.20 in 8.0 mi South 10.4 mph - 0.18 in Rain Light Rain
3:51 PM 82.0 °F 86.7 °F 72.0 °F 71% 30.18 in 10.0 mi South 12.7 mph - 0.18 in   Mostly Cloudy
4:51 PM 84.0 °F 89.0 °F 71.1 °F 65% 30.18 in 10.0 mi SSE 11.5 mph - N/A   Mostly Cloudy
5:51 PM 82.9 °F 87.5 °F 71.1 °F 67% 30.17 in 10.0 mi South 10.4 mph 17.3 mph N/A   Mostly Cloudy
6:51 PM 82.0 °F 86.3 °F 71.1 °F 69% 30.17 in 10.0 mi South 8.1 mph - 0.00 in Rain Light Rain
7:10 PM 80.6 °F 85.4 °F 73.4 °F 79% 30.18 in 1.5 mi WSW 6.9 mph - 0.01 in Rain Heavy Rain
7:17 PM 78.8 °F - 73.4 °F 83% 30.18 in 4.0 mi Calm Calm - 0.10 in Rain Light Rain
7:25 PM 80.6 °F 85.4 °F 73.4 °F 79% 30.19 in 1.5 mi South 18.4 mph - 0.12 in Rain Heavy Rain
7:27 PM 78.8 °F - 73.4 °F 83% 30.19 in 0.8 mi South 12.7 mph 20.7 mph 0.16 in Rain Heavy Rain
7:31 PM 77.0 °F - 73.4 °F 89% 30.19 in 0.5 mi SSW 5.8 mph 20.7 mph 0.42 in Fog , Rain , Thunderstorm Heavy Thunderstorms and Rain
7:37 PM 78.8 °F - 73.4 °F 83% 30.19 in 1.2 mi SSW 5.8 mph - 0.49 in Rain , Thunderstorm Heavy Thunderstorms and Rain
7:39 PM 78.8 °F - 73.4 °F 83% 30.19 in 2.0 mi SSW 8.1 mph - 0.51 in Rain , Thunderstorm Thunderstorms and Rain
7:43 PM 78.8 °F - 73.4 °F 83% 30.19 in 3.0 mi SSW 10.4 mph - 0.51 in Rain , Thunderstorm Light Thunderstorms and Rain
7:51 PM 78.1 °F - 73.9 °F 87% 30.19 in 2.5 mi SSW 13.8 mph - 0.54 in Rain , Thunderstorm Thunderstorms and Rain
7:53 PM 78.8 °F - 73.4 °F 83% 30.19 in 2.0 mi SSW 13.8 mph - 0.01 in Rain , Thunderstorm Heavy Thunderstorms and Rain
8:19 PM 78.8 °F - 73.4 °F 83% 30.18 in 10.0 mi South 9.2 mph - 0.17 in   Overcast
8:51 PM 79.0 °F - 73.9 °F 84% 30.19 in 10.0 mi South 6.9 mph - 0.17 in   Mostly Cloudy
9:51 PM 78.1 °F - 73.9 °F 87% 30.21 in 10.0 mi SSW 5.8 mph - N/A   Mostly Cloudy
10:51 PM 77.0 °F - 73.0 °F 88% 30.21 in 10.0 mi South 8.1 mph - N/A   Scattered Clouds
11:51 PM 79.0 °F - 73.9 °F 84% 30.22 in 10.0 mi SSW 8.1 mph - N/A   Mostly Cloudy